Weather History for Silver City, NM

Change the Weather History Date:

Monday, February 18, 2013

  Actual Average (KDMN) Record (KDMN)
Temperature  
Mean Temperature 42 °F 47 °F  
Max Temperature 57 °F 63 °F 77 °F (2014)
Min Temperature 26 °F 32 °F 16 °F (1990)
Degree Days  
Heating Degree Days 24    
Moisture  
Dew Point 5 °F    
Average Humidity 22    
Maximum Humidity 40    
Minimum Humidity 10    
Precipitation  
Precipitation 0.00 in 0.02 in 0.26 in (1991)
Month to date precipitation 0.40  
Year to date precipitation 1.01  
Sea Level Pressure  
Sea Level Pressure 30.05 in    
Wind  
Wind Speed 10 mph (NW)    
Max Wind Speed 20 mph    
Max Gust Speed 28 mph    
Visibility 10 miles    
Events      
T = Trace of Precipitation, MM = Missing Value Source: NWS Daily Summary

Daily Weather History Graph

Daily Weather History Graph

Search for Another Location

Airport:

Trip Planner

Search our weather history database for the weather conditions in past years. The results will help you decide how hot, cold, wet, or windy it might be!

Date:

Astronomy

Feb. 18, 2013 Rise Set
Actual Time 6:52 AM MST 6:01 PM MST
Civil Twilight 6:27 AM MST 6:26 PM MST
Nautical Twilight 5:58 AM MST 6:55 PM MST
Astronomical Twilight 5:29 AM MST 7:23 PM MST
Moon 11:58 AM MST (2/18) 1:25 AM MST (2/18)
Length of Visible Light 11h 59m
Length of Day
11h 08m
First Quarter, 59% of the Moon is Illuminated
Feb 18
First Quarter
Feb 25
Full
Mar 4
Last Quarter
Mar 11
New
Mar 19
First Quarter

Hourly Weather History & Observations

Time (MST) Temp. Windchill Dew Point Humidity Pressure Visibility Wind Dir Wind Speed Gust Speed Precip Events Conditions
12:15 AM 32.0 °F 22.5 °F 5.0 °F 32% 29.98 in 10.0 mi NNW 12.7 mph - N/A   Clear
12:35 AM 35.6 °F 28.6 °F 5.0 °F 28% 29.98 in 10.0 mi NW 9.2 mph - N/A   Clear
12:55 AM 32.0 °F 23.6 °F 5.0 °F 32% 29.99 in 10.0 mi NW 10.4 mph - N/A   Clear
1:15 AM 37.4 °F 29.8 °F 6.8 °F 28% 29.99 in 10.0 mi NW 11.5 mph 17.3 mph N/A   Clear
1:35 AM 33.8 °F 26.4 °F 5.0 °F 30% 29.99 in 10.0 mi WNW 9.2 mph - N/A   Clear
1:55 AM 30.2 °F 22.6 °F 5.0 °F 34% 30.00 in 10.0 mi NNW 8.1 mph - N/A   Clear
2:15 AM 26.6 °F 19.1 °F 5.0 °F 40% 30.00 in 10.0 mi NNW 6.9 mph - N/A   Clear
2:35 AM 30.2 °F 23.4 °F 6.8 °F 37% 30.00 in 10.0 mi NNW 6.9 mph - N/A   Clear
2:55 AM 32.0 °F 25.6 °F 6.8 °F 35% 30.00 in 10.0 mi NNW 6.9 mph - N/A   Clear
3:15 AM 32.0 °F 24.8 °F 6.8 °F 35% 30.00 in 10.0 mi NW 8.1 mph - N/A   Clear
3:35 AM 32.0 °F 25.6 °F 6.8 °F 35% 30.01 in 10.0 mi NNW 6.9 mph - N/A   Clear
3:55 AM 32.0 °F 24.8 °F 6.8 °F 35% 30.01 in 10.0 mi NW 8.1 mph - N/A   Clear
4:15 AM 32.0 °F 24.2 °F 6.8 °F 35% 30.02 in 10.0 mi WNW 9.2 mph - N/A   Clear
4:35 AM 33.8 °F 25.3 °F 6.8 °F 32% 30.02 in 10.0 mi NW 11.5 mph - N/A   Clear
4:55 AM 33.8 °F 24.8 °F 6.8 °F 32% 30.02 in 10.0 mi WNW 12.7 mph - N/A   Clear
5:35 AM 33.8 °F 23.9 °F 6.8 °F 32% 30.03 in 10.0 mi NW 15.0 mph - N/A   Clear
5:55 AM 32.0 °F 23.6 °F 6.8 °F 35% 30.04 in 10.0 mi NNW 10.4 mph - N/A   Clear
6:35 AM 32.0 °F 24.2 °F 6.8 °F 35% 30.05 in 10.0 mi North 9.2 mph - N/A   Clear
7:15 AM 32.0 °F 23.6 °F 6.8 °F 35% 30.05 in 10.0 mi NNW 10.4 mph - N/A   Clear
7:55 AM 39.2 °F 34.2 °F 8.6 °F 28% 30.09 in 10.0 mi NNW 6.9 mph - N/A   Clear
8:15 AM 41.0 °F 36.4 °F 8.6 °F 26% 30.10 in 10.0 mi NNW 6.9 mph - N/A   Clear
8:35 AM 42.8 °F 38.6 °F 8.6 °F 25% 30.11 in 10.0 mi NNW 6.9 mph - N/A   Clear
8:55 AM 44.6 °F 39.7 °F 8.6 °F 23% 30.12 in 10.0 mi NNW 9.2 mph - N/A   Clear
9:15 AM 46.4 °F 41.1 °F 8.6 °F 22% 30.12 in 10.0 mi WNW 11.5 mph - N/A   Clear
9:35 AM 48.2 °F - 8.6 °F 20% 30.12 in 10.0 mi WNW 6.9 mph - N/A   Clear
9:55 AM 48.2 °F - 8.6 °F 20% 30.12 in 10.0 mi NW 18.4 mph 21.9 mph N/A   Clear
10:15 AM 51.8 °F - 6.8 °F 16% 30.11 in 10.0 mi NW 19.6 mph 24.2 mph N/A   Clear
10:35 AM 51.8 °F - 6.8 °F 16% 30.12 in 10.0 mi NW 17.3 mph 27.6 mph N/A   Clear
10:55 AM 51.8 °F - 6.8 °F 16% 30.12 in 9.0 mi NW 18.4 mph 23.0 mph N/A   Clear
11:15 AM 53.6 °F - 5.0 °F 14% 30.12 in 10.0 mi NNW 13.8 mph 26.5 mph N/A   Clear
11:55 AM 53.6 °F - 5.0 °F 14% 30.10 in 10.0 mi NNW 12.7 mph 16.1 mph N/A   Clear
12:15 PM 55.4 °F - 6.8 °F 14% 30.10 in 10.0 mi West 8.1 mph 18.4 mph N/A   Clear
12:35 PM 55.4 °F - 5.0 °F 13% 30.09 in 10.0 mi WNW 16.1 mph 20.7 mph N/A   Clear
12:55 PM 55.4 °F - 1.4 °F 11% 30.08 in 10.0 mi West 15.0 mph - N/A   Clear
1:15 PM 55.4 °F - 5.0 °F 13% 30.07 in 10.0 mi West 9.2 mph 17.3 mph N/A   Clear
1:35 PM 55.4 °F - 5.0 °F 13% 30.06 in 10.0 mi West 11.5 mph 19.6 mph N/A   Clear
1:55 PM 57.2 °F - 1.4 °F 10% 30.06 in 10.0 mi West 17.3 mph - N/A   Clear
2:15 PM 57.2 °F - -0.4 °F 10% 30.05 in 10.0 mi West 11.5 mph 23.0 mph N/A   Clear
2:35 PM 57.2 °F - -0.4 °F 10% 30.05 in 10.0 mi West 15.0 mph 21.9 mph N/A   Clear
2:55 PM 55.4 °F - 1.4 °F 11% 30.05 in 10.0 mi West 11.5 mph 21.9 mph N/A   Clear
3:15 PM 55.4 °F - -0.4 °F 10% 30.04 in 10.0 mi West 16.1 mph 19.6 mph N/A   Clear
3:35 PM 55.4 °F - 1.4 °F 11% 30.04 in 10.0 mi West 6.9 mph 20.7 mph N/A   Clear
3:55 PM 55.4 °F - 1.4 °F 11% 30.04 in 10.0 mi West 11.5 mph 18.4 mph N/A   Clear
4:15 PM 55.4 °F - 1.4 °F 11% 30.04 in 10.0 mi WSW 11.5 mph 16.1 mph N/A   Clear
4:35 PM 53.6 °F - 1.4 °F 12% 30.05 in 10.0 mi West 10.4 mph - N/A   Clear
4:55 PM 53.6 °F - 1.4 °F 12% 30.05 in 10.0 mi West 11.5 mph 16.1 mph N/A   Clear
5:15 PM 53.6 °F - 1.4 °F 12% 30.05 in 10.0 mi West 11.5 mph - N/A   Clear
5:35 PM 51.8 °F - 3.2 °F 14% 30.05 in 10.0 mi WNW 9.2 mph - N/A   Clear
5:55 PM 50.0 °F - 1.4 °F 14% 30.06 in 10.0 mi WNW 8.1 mph - N/A   Clear
6:15 PM 46.4 °F 42.9 °F 3.2 °F 17% 30.06 in 10.0 mi WNW 6.9 mph - N/A   Clear
6:55 PM 42.8 °F 38.6 °F 3.2 °F 19% 30.06 in 10.0 mi NNW 6.9 mph - N/A   Clear
7:15 PM 42.8 °F 38.6 °F 5.0 °F 21% 30.06 in 10.0 mi NNW 6.9 mph - N/A   Clear
7:35 PM 42.8 °F 37.5 °F 5.0 °F 21% 30.06 in 10.0 mi North 9.2 mph - N/A   Clear
8:15 PM 42.8 °F 39.3 °F 5.0 °F 21% 30.07 in 10.0 mi NNW 5.8 mph - N/A   Clear
8:35 PM 39.2 °F 33.6 °F 5.0 °F 24% 30.07 in 10.0 mi NNW 8.1 mph - N/A   Clear
8:55 PM 39.2 °F 33.0 °F 5.0 °F 24% 30.06 in 10.0 mi North 9.2 mph - N/A   Clear
9:15 PM 39.2 °F 32.5 °F 5.0 °F 24% 30.06 in 10.0 mi NNW 10.4 mph - N/A   Clear
9:55 PM 35.6 °F 29.9 °F 3.2 °F 26% 30.07 in 10.0 mi NNW 6.9 mph - N/A   Clear
10:15 PM 32.0 °F 25.6 °F 1.4 °F 27% 30.06 in 10.0 mi NNW 6.9 mph - N/A   Clear
10:35 PM 35.6 °F 28.6 °F 1.4 °F 24% 30.07 in 10.0 mi NNW 9.2 mph - N/A   Clear
10:55 PM 33.8 °F 25.3 °F 1.4 °F 25% 30.06 in 10.0 mi NNW 11.5 mph - N/A   Clear
11:15 PM 35.6 °F 27.1 °F 1.4 °F 24% 30.06 in 10.0 mi North 12.7 mph - N/A   Clear
11:35 PM 33.8 °F 27.7 °F 1.4 °F 25% 30.06 in 10.0 mi NW 6.9 mph - N/A   Clear
11:55 PM 33.8 °F 27.0 °F 1.4 °F 25% 30.06 in 10.0 mi NNW 8.1 mph - N/A   Clear